ONEWEB-0311, 49097

Orbit data source: Space-Track

ONEWEB-0311, 49097 is a payload satellite owned by One Web (NAA) (UK) in LEO that was launched on Sat, 21 Aug 2021 UTC via a SOYUZ-2-1B launch vehicle from the Tyuratam Missile And Space Complex (TTMTR). Payload-class satellites include a variety of spacecraft equipped with specific instruments for various scientific and technological missions. These include communications satellites like Starlink; space stations such as the ISS; scientific satellites like the Hubble; Earth observation satellites from companies like Planet Labs, Umbra, and HawkEye 360; GPS; miniature CubeSats for education and research; and military/defense satellites.

Loading next visibility...
Identifier
49097, 2021-075Y
Orbit
LEO
Country
Flag of UKUK
Related business
Manufacturer
One Web
Mission
Operational Commercial Communications
Bus & Motor
ARROW, Unknown motor
Mass
148 kg wet, ~140 kg dry
Launch date (UTC)
2021-08-21 (5 years ago)
Launch vehicle
SOYUZ-2-1B
Launch site
Tyuratam Missile And Space Complex (TTMTR)
Object type
Payload
Rocket body
Debris
Shape & HBR
Trap Box + 2 Pan, 6.7 m
Radar Cross Section
3.464 m², Medium (>0.1 m² and < 1m²)

Expand to show TLE details & history
Last TLE update: 7 hours ago

TLE from 7 hours ago
0 ONEWEB-0311
1 49097U 21075Y   26130.20363729  .00000050  00000-0  95319-4 0  9994
2 49097  87.9179  13.4125 0001964  95.2727 264.8629 13.17648345228629
Epoch: 2026-05-10T04:53Z
TLE epoch observation values (Epoch: 2026-05-10T04:53:14.261Z)
Latitude
-0.00001°
Longitude
72.09299°
Altitude
1,196.748 km
Speed
7.255 km/s
True Right ascension
00h 53m 38s
True Declination
0° 00' 00"
Sunlit
Object was in daylight at epoch
Visualization orbit readout
Latitude
Unknown
Longitude
Unknown
Altitude
Unknown
Speed
Unknown
Apparent Right ascension
Unknown
Apparent Declination
Unknown
Sunlit
N/A
Visualization observer readout
Local Sidereal Time
19:48:55
Azimuth
Unknown
Elevation
Unknown
Doppler factor
Unknown
Orbital elements
Apogee altitude
1,192.311 km
Perigee altitude
1,189.338 km
Semi-major axis
7,568.962 km
Eccentricity
0.0002
Inclination
87.9179°
RAAN
13.4125°
Arg. of periapsis
95.2727°
True anomaly
264.84049°
Mean anomaly
264.8629°
Eccentric anomaly
264.85169°
Mean motion
3.29601 °/min
Orbital period
109.22 mins
BSTAR
0.000095319
Loading maneuver chart data...
Computing Atmospheric mass density...
Loading historical data...
Loading historical data...
Loading historical data...
Loading historical data...
Loading historical data...
Loading historical data...
Loading historical data...

Documentation

Showing up to 5 results
|